Terug naar catalogus

STARLINK-34243

ActiefCommunicatieVLEO
NORAD 64361·PAYLOAD·🇺🇸 United States

Gelanceerd Jun 13, 2025 vanaf Vandenberg Space Force Base

Loading…

Volgende Passages (komende 24 uur)

TLE

VersSource: CelesTrak SupGP

Epoch: Sep 15, 2026, 02:31 UTC

1 64361C 25126T   26258.10534722 -.00011030  00000+0 -38366-3 0  2586
2 64361  70.0007 274.9905 0003460 268.4630  20.3700 15.29588269    12

Volg STARLINK-34243 in realtime met AllMySat

Download on the App Store